Weather observations for the past three days for
Oceanside, Oceanside Municipal Airport
Imperial (Metric)
Date Time (pdt) Wind (mph) Vis. (mi.) Weather Sky Cond. Temperature (ºF) Relative Humidity Wind Chill (°F) Heat Index (°F) Pressure Precipitation (in)
Air Dwpt 6 hour altimeter (in) sea level (mb) 1 hr 3 hr 6 hr
Max. Min.
19 10:52 W 8 6.00 Fair with Haze CLR 75.9 64.9 77 66.9 69% 78 29.98 1015.2
19 09:52 W 5 5.00 Overcast with Haze OVC010 73 64.9 76% 29.98 1015.1
19 08:52 Calm 5.00 Overcast with Haze OVC006 69.1 64 84% 29.98 1015.3
19 07:52 Calm 4.00 Fog/Mist OVC005 66.9 63 87% 29.98 1015.2
19 06:52 NW 3 4.00 Fog/Mist OVC006 66.9 63 87% 29.97 1014.8
19 05:52 Calm 6.00 Fog/Mist OVC006 66.9 63 87% 29.96 1014.4
19 04:52 Calm 6.00 Fog/Mist OVC006 66.9 63 68 66.9 87% 29.95 1014.2
19 03:52 Calm 6.00 Fog/Mist OVC006 68 64 87% 29.95 1014.2
19 02:52 Calm 6.00 Fog/Mist OVC006 68 64 87% 29.96 1014.5
19 01:52 NW 3 6.00 Overcast with Haze OVC007 68 63 84% 29.96 1014.6
19 00:52 Calm 6.00 Overcast with Haze OVC007 68 63 84% 29.98 1015.0
18 23:52 Calm 7.00 Overcast OVC007 68 63 84% 29.99 1015.3
18 22:52 Calm 6.00 Overcast with Haze OVC008 68 63 75.9 66.9 84% 29.99 1015.5
18 21:52 W 5 6.00 Fog/Mist OVC009 66.9 63 87% 29.98 1015.0
18 20:52 W 5 7.00 Overcast OVC009 68 63 84% 29.96 1014.4
18 19:52 S 3 6.00 Overcast with Haze OVC010 69.1 63 81% 29.95 1014.3
18 18:52 Vrbl 5 6.00 Overcast with Haze OVC011 70 63 79% 29.95 1014.2
18 17:52 W 8 6.00 Overcast with Haze OVC012 72 63 73% 29.94 1013.9
18 16:52 W 10 6.00 A Few Clouds with Haze FEW013 75 64 80.1 75 69% 77 29.94 1013.8
18 15:52 W 9 6.00 A Few Clouds with Haze FEW013 77 64 64% 79 29.96 1014.3
18 14:52 W 9 G 20 6.00 A Few Clouds with Haze FEW015 77 64 64% 79 29.96 1014.5
18 13:52 W 12 6.00 Fair with Haze CLR 79 64 60% 81 29.97 1014.7
18 12:52 W 10 6.00 A Few Clouds with Haze FEW014 80.1 64.9 60% 82 29.97 1014.9
18 11:52 SW 10 6.00 Fair with Haze CLR 77 64 64% 79 29.97 1014.9
18 10:52 W 10 6.00 Fair with Haze CLR 77 64 78.1 63 64% 79 29.97 1014.9
18 09:52 S 5 6.00 Fair with Haze CLR 78.1 64 62% 80 29.97 1014.7
18 08:52 N 3 6.00 Overcast with Haze OVC014 72 63 73% 29.97 1014.8
18 07:52 Calm 6.00 Overcast with Haze OVC012 70 63 79% 29.96 1014.5
18 06:52 Calm 5.00 Fog/Mist OVC012 66 62.1 87% 29.95 1014.0
18 05:52 Calm 6.00 Fog/Mist OVC016 64 60.1 87% 29.94 1013.7
18 04:52 Calm 7.00 Fair CLR 64 60.1 68 64 87% 29.93 1013.4
18 03:52 Calm 7.00 Fair CLR 64.9 60.1 84% 29.92 1013.2
18 02:52 Calm 7.00 Fair CLR 66.9 62.1 84% 29.93 1013.4
18 01:52 SW 3 7.00 Fair CLR 66.9 62.1 84% 29.94 1013.7
18 00:52 S 3 7.00 Fair CLR 68 62.1 81% 29.94 1014.0
17 23:52 S 3 7.00 A Few Clouds FEW013 68 62.1 81% 29.95 1014.3
17 22:52 S 5 7.00 Mostly Cloudy BKN013 68 62.1 75 68 81% 29.96 1014.4
17 21:52 S 5 7.00 Overcast OVC014 69.1 62.1 78% 29.95 1014.2
17 20:52 S 7 7.00 Overcast OVC012 70 63 79% 29.94 1013.7
17 19:52 S 7 6.00 A Few Clouds with Haze FEW012 70 63 79% 29.92 1013.1
17 18:52 SW 8 6.00 Partly Cloudy with Haze SCT013 72 63 73% 29.9 1012.5
17 17:52 SW 8 6.00 Fair with Haze CLR 73.9 63 69% 29.9 1012.3
17 16:52 W 9 6.00 Fair with Haze CLR 75 63 78.1 73.9 66% 77 29.89 1012.3
17 15:52 W 9 7.00 Fair CLR 73.9 62.1 67% 29.91 1012.8
17 14:52 W 10 7.00 Fair CLR 75.9 62.1 62% 78 29.93 1013.5
17 13:52 W 10 7.00 Fair CLR 77 63 62% 79 29.95 1014.1
17 12:52 W 13 G 20 7.00 Fair CLR 77 63 62% 79 29.96 1014.6
17 11:52 W 10 G 17 7.00 Mostly Cloudy BKN015 75.9 64 67% 78 29.98 1015.2
17 10:52 W 8 6.00 Overcast with Haze OVC016 77 64 77 69.1 64% 79 29.98 1015.3
17 09:52 W 9 6.00 Overcast with Haze OVC017 73 63 71% 29.98 1015.2
17 08:52 Vrbl 3 6.00 Overcast with Haze OVC015 72 64 76% 29.98 1015.3
17 07:52 Calm 5.00 Overcast with Haze OVC013 70 63 79% 29.98 1015.2
17 06:52 Vrbl 3 6.00 Overcast with Haze OVC012 69.1 63 81% 29.97 1014.9
17 05:52 W 3 8.00 Overcast OVC014 70 63 79% 29.96 1014.4
17 04:52 Calm 8.00 Overcast OVC015 69.1 63 71.1 69.1 81% 29.95 1014.0
17 03:52 Calm 8.00 Overcast OVC015 70 63 79% 29.94 1013.7
17 02:52 Calm 8.00 Overcast OVC014 70 63 79% 29.94 1013.8
17 01:52 NW 3 8.00 Overcast OVC013 70 63 79% 29.94 1013.8
17 00:52 Calm 7.00 Overcast OVC015 70 63 79% 29.95 1014.1
16 23:52 NW 5 8.00 Overcast OVC014 70 63 79% 29.94 1014.0
16 22:52 W 3 8.00 Overcast OVC013 70 64 77 70 82% 29.94 1013.9
16 21:52 W 5 8.00 Overcast OVC012 70 64 82% 29.94 1013.9
16 20:52 W 3 8.00 Mostly Cloudy BKN013 70 64 82% 29.94 1013.7
16 19:52 SW 7 6.00 A Few Clouds with Haze FEW013 71.1 64 79% 29.93 1013.5
16 18:52 Vrbl 7 7.00 Fair CLR 73 63 71% 29.93 1013.4
16 17:52 W 9 7.00 Fair CLR 73.9 62.1 67% 29.92 1013.1
16 16:52 W 10 7.00 Fair CLR 75.9 62.1 79 75 62% 78 29.93 1013.4
16 15:52 W 12 7.00 Fair CLR 77 62.1 60% 79 29.94 1014.0
16 14:52 W 12 7.00 Fair CLR 79 63 58% 81 29.96 1014.4
16 13:52 W 10 7.00 Fair CLR 78.1 63 60% 80 29.97 1014.9
16 12:52 W 9 6.00 Fair with Haze CLR 78.1 64 62% 80 29.99 1015.3
16 11:52 W 10 6.00 Partly Cloudy with Haze SCT016 75 64 69% 77 30 1015.7
Date Time (pdt) Wind (mph) Vis. (mi.) Weather Sky Cond. Air Dwpt Max. Min. Relative Humidity Wind Chill (°F) Heat Index (°F) altimeter (in) sea level (mb) 1 hr 3 hr 6 hr
6 hour
Temperature (ºF) Pressure Precipitation (in)